Time,TemperatureF,DewpointF,PressureIn,WindDirection,WindDirectionDegrees,WindSpeedMPH,WindSpeedGustMPH,Humidity,HourlyPrecipIn,Conditions,Clouds,dailyrainin,SoftwareType,DateUTC
2013-05-05 00:05:00,53.2,45.5,30.25,ESE,115,1.0,5.0,75,0.00,,,0.00,Wunderground v.1.15,2013-05-05 04:05:00,
2013-05-05 00:10:00,52.9,45.5,30.25,SSE,168,1.0,1.0,76,0.00,,,0.00,Wunderground v.1.15,2013-05-05 04:10:00,
2013-05-05 00:15:00,52.6,45.2,30.26,ESE,107,1.0,2.0,76,0.00,,,0.00,Wunderground v.1.15,2013-05-05 04:15:00,
2013-05-05 00:20:00,52.4,45.4,30.26,East,92,1.0,1.0,77,0.00,,,0.00,Wunderground v.1.15,2013-05-05 04:20:00,
2013-05-05 00:25:00,52.3,45.3,30.26,SSE,151,1.0,1.0,77,0.00,,,0.00,Wunderground v.1.15,2013-05-05 04:25:00,
2013-05-05 00:30:00,52.2,45.2,30.26,SSE,159,1.0,1.0,77,0.00,,,0.00,Wunderground v.1.15,2013-05-05 04:30:00,
2013-05-05 00:35:00,52.1,45.4,30.26,ESE,121,1.0,5.0,78,0.00,,,0.00,Wunderground v.1.15,2013-05-05 04:35:00,
2013-05-05 00:40:00,52.0,45.4,30.26,SE,139,1.0,1.0,78,0.00,,,0.00,Wunderground v.1.15,2013-05-05 04:40:00,
2013-05-05 00:45:00,51.8,45.2,30.26,South,182,1.0,1.0,78,0.00,,,0.00,Wunderground v.1.15,2013-05-05 04:45:00,
2013-05-05 00:50:00,51.7,45.1,30.26,ESE,109,1.0,1.0,78,0.00,,,0.00,Wunderground v.1.15,2013-05-05 04:50:00,
2013-05-05 00:55:00,51.5,44.9,30.26,SSE,161,1.0,1.0,78,0.00,,,0.00,Wunderground v.1.15,2013-05-05 04:55:00,
2013-05-05 01:00:00,51.3,45.0,30.26,SSE,153,0.0,1.0,79,0.00,,,0.00,Wunderground v.1.15,2013-05-05 05:00:00,
2013-05-05 01:05:00,51.1,44.8,30.26,South,173,0.0,1.0,79,0.00,,,0.00,Wunderground v.1.15,2013-05-05 05:05:00,
2013-05-05 01:15:00,50.5,44.9,30.26,SE,132,0.0,1.0,81,0.00,,,0.00,Wunderground v.1.15,2013-05-05 05:15:00,
2013-05-05 01:20:00,50.3,44.7,30.26,SE,141,0.0,0.0,81,0.00,,,0.00,Wunderground v.1.15,2013-05-05 05:20:00,
2013-05-05 01:25:00,50.1,44.8,30.26,ESE,109,0.0,0.0,82,0.00,,,0.00,Wunderground v.1.15,2013-05-05 05:25:00,
2013-05-05 01:30:00,49.9,44.6,30.26,South,180,0.0,0.0,82,0.00,,,0.00,Wunderground v.1.15,2013-05-05 05:30:00,
2013-05-05 01:35:00,49.6,44.0,30.26,South,180,0.0,0.0,81,0.00,,,0.00,Wunderground v.1.15,2013-05-05 05:35:00,
2013-05-05 01:40:00,49.5,44.2,30.26,East,100,0.0,0.0,82,0.00,,,0.00,Wunderground v.1.15,2013-05-05 05:40:00,
2013-05-05 01:45:00,49.3,43.7,30.26,East,100,0.0,0.0,81,0.00,,,0.00,Wunderground v.1.15,2013-05-05 05:45:00,
2013-05-05 01:55:00,48.8,43.5,30.25,ESE,122,0.0,0.0,82,0.00,,,0.00,Wunderground v.1.15,2013-05-05 05:55:00,
2013-05-05 02:00:00,48.6,43.4,30.25,ESE,117,0.0,0.0,82,0.00,,,0.00,Wunderground v.1.15,2013-05-05 06:00:00,
2013-05-05 02:05:00,48.4,43.5,30.25,ESE,115,0.0,0.0,83,0.00,,,0.00,Wunderground v.1.15,2013-05-05 06:05:00,
2013-05-05 02:10:00,48.2,43.3,30.25,ESE,115,0.0,0.0,83,0.00,,,0.00,Wunderground v.1.15,2013-05-05 06:10:00,
2013-05-05 02:15:00,48.0,43.1,30.25,ESE,115,0.0,0.0,83,0.00,,,0.00,Wunderground v.1.15,2013-05-05 06:15:00,
2013-05-05 02:20:00,47.8,42.9,30.25,ESE,109,0.0,0.0,83,0.00,,,0.00,Wunderground v.1.15,2013-05-05 06:20:00,
2013-05-05 02:25:00,47.5,42.9,30.25,ESE,109,0.0,0.0,84,0.00,,,0.00,Wunderground v.1.15,2013-05-05 06:25:00,
2013-05-05 02:35:00,47.1,42.8,30.25,ESE,109,0.0,0.0,85,0.00,,,0.00,Wunderground v.1.15,2013-05-05 06:35:00,
2013-05-05 02:40:00,46.9,42.6,30.25,ESE,109,0.0,0.0,85,0.00,,,0.00,Wunderground v.1.15,2013-05-05 06:40:00,
2013-05-05 02:45:00,46.6,42.3,30.25,ESE,109,0.0,0.0,85,0.00,,,0.00,Wunderground v.1.15,2013-05-05 06:45:00,
2013-05-05 02:50:00,46.4,42.1,30.25,ESE,109,0.0,0.0,85,0.00,,,0.00,Wunderground v.1.15,2013-05-05 06:50:00,
2013-05-05 02:55:00,46.1,42.1,30.25,ESE,109,0.0,0.0,86,0.00,,,0.00,Wunderground v.1.15,2013-05-05 06:55:00,
2013-05-05 03:00:00,45.9,41.9,30.25,ESE,109,0.0,0.0,86,0.00,,,0.00,Wunderground v.1.15,2013-05-05 07:00:00,
2013-05-05 03:10:00,45.5,41.9,30.25,ESE,123,0.0,0.0,87,0.00,,,0.00,Wunderground v.1.15,2013-05-05 07:10:00,
2013-05-05 03:15:00,45.3,41.7,30.26,ESE,123,0.0,0.0,87,0.00,,,0.00,Wunderground v.1.15,2013-05-05 07:15:00,
2013-05-05 03:20:00,45.1,41.8,30.26,ESE,123,0.0,0.0,88,0.00,,,0.00,Wunderground v.1.15,2013-05-05 07:20:00,
2013-05-05 03:25:00,45.0,41.7,30.26,ESE,123,0.0,0.0,88,0.00,,,0.00,Wunderground v.1.15,2013-05-05 07:25:00,
2013-05-05 03:30:00,44.8,41.8,30.26,ESE,123,0.0,0.0,89,0.00,,,0.00,Wunderground v.1.15,2013-05-05 07:30:00,
2013-05-05 03:35:00,44.6,41.6,30.26,ESE,123,0.0,0.0,89,0.00,,,0.00,Wunderground v.1.15,2013-05-05 07:35:00,
2013-05-05 03:40:00,44.4,41.4,30.26,ESE,123,0.0,0.0,89,0.00,,,0.00,Wunderground v.1.15,2013-05-05 07:40:00,
2013-05-05 03:45:00,44.4,41.7,30.26,ESE,123,0.0,0.0,90,0.00,,,0.00,Wunderground v.1.15,2013-05-05 07:45:00,
2013-05-05 03:55:00,44.1,41.1,30.26,ESE,123,0.0,0.0,89,0.00,,,0.00,Wunderground v.1.15,2013-05-05 07:55:00,
2013-05-05 04:00:00,43.8,40.8,30.26,ESE,123,0.0,0.0,89,0.00,,,0.00,Wunderground v.1.15,2013-05-05 08:00:00,
2013-05-05 04:05:00,43.7,41.0,30.26,ESE,123,0.0,0.0,90,0.00,,,0.00,Wunderground v.1.15,2013-05-05 08:05:00,
2013-05-05 04:10:00,43.4,40.7,30.26,ESE,123,0.0,0.0,90,0.00,,,0.00,Wunderground v.1.15,2013-05-05 08:10:00,
2013-05-05 04:15:00,43.2,40.2,30.26,ESE,123,0.0,0.0,89,0.00,,,0.00,Wunderground v.1.15,2013-05-05 08:15:00,
2013-05-05 04:20:00,42.9,40.2,30.26,ESE,123,0.0,0.0,90,0.00,,,0.00,Wunderground v.1.15,2013-05-05 08:20:00,
2013-05-05 04:25:00,42.7,40.0,30.26,ESE,123,0.0,0.0,90,0.00,,,0.00,Wunderground v.1.15,2013-05-05 08:25:00,
2013-05-05 04:35:00,42.3,39.9,30.26,ESE,123,0.0,0.0,91,0.00,,,0.00,Wunderground v.1.15,2013-05-05 08:35:00,
2013-05-05 04:40:00,42.1,39.7,30.26,ESE,123,0.0,0.0,91,0.00,,,0.00,Wunderground v.1.15,2013-05-05 08:40:00,
2013-05-05 04:45:00,41.9,39.5,30.26,ESE,123,0.0,0.0,91,0.00,,,0.00,Wunderground v.1.15,2013-05-05 08:45:00,
2013-05-05 04:50:00,41.8,39.4,30.26,ESE,123,0.0,0.0,91,0.00,,,0.00,Wunderground v.1.15,2013-05-05 08:50:00,
2013-05-05 04:55:00,41.5,39.1,30.27,ESE,123,0.0,0.0,91,0.00,,,0.00,Wunderground v.1.15,2013-05-05 08:55:00,
2013-05-05 05:00:00,41.3,38.9,30.27,ESE,123,0.0,0.0,91,0.00,,,0.00,Wunderground v.1.15,2013-05-05 09:00:00,
2013-05-05 05:10:00,41.2,39.1,30.27,ESE,123,0.0,0.0,92,0.00,,,0.00,Wunderground v.1.15,2013-05-05 09:10:00,
2013-05-05 05:15:00,41.3,39.4,30.27,ESE,123,0.0,0.0,93,0.00,,,0.00,Wunderground v.1.15,2013-05-05 09:15:00,
2013-05-05 05:20:00,41.3,39.4,30.27,ESE,123,0.0,0.0,93,0.00,,,0.00,Wunderground v.1.15,2013-05-05 09:20:00,
2013-05-05 05:30:00,41.1,39.2,30.28,ESE,123,0.0,0.0,93,0.00,,,0.00,Wunderground v.1.15,2013-05-05 09:30:00,
2013-05-05 05:35:00,41.0,40.5,30.27,ESE,123,0.0,0.0,98,0.00,,,0.00,Wunderground v.1.15,2013-05-05 09:35:00,
2013-05-05 05:40:00,40.8,38.7,30.28,ESE,123,0.0,0.0,92,0.00,,,0.00,Wunderground v.1.15,2013-05-05 09:40:00,
2013-05-05 05:45:00,40.6,38.5,30.28,ESE,123,0.0,0.0,92,0.00,,,0.00,Wunderground v.1.15,2013-05-05 09:45:00,
2013-05-05 05:50:00,40.4,38.5,30.28,ESE,123,0.0,0.0,93,0.00,,,0.00,Wunderground v.1.15,2013-05-05 09:50:00,
2013-05-05 05:55:00,40.3,38.4,30.28,ESE,123,0.0,0.0,93,0.00,,,0.00,Wunderground v.1.15,2013-05-05 09:55:00,
2013-05-05 06:00:00,40.2,38.3,30.28,ESE,123,0.0,0.0,93,0.00,,,0.00,Wunderground v.1.15,2013-05-05 10:00:00,
2013-05-05 06:05:00,40.1,38.2,30.28,ESE,123,0.0,0.0,93,0.00,,,0.00,Wunderground v.1.15,2013-05-05 10:05:00,
2013-05-05 06:10:00,40.0,38.1,30.28,ESE,123,0.0,0.0,93,0.00,,,0.00,Wunderground v.1.15,2013-05-05 10:10:00,
2013-05-05 06:15:00,40.0,38.1,30.28,ESE,123,0.0,0.0,93,0.00,,,0.00,Wunderground v.1.15,2013-05-05 10:15:00,
2013-05-05 06:20:00,40.0,38.1,30.28,ESE,123,0.0,0.0,93,0.00,,,0.00,Wunderground v.1.15,2013-05-05 10:20:00,
2013-05-05 06:30:00,40.1,38.2,30.28,ESE,123,0.0,0.0,93,0.00,,,0.00,Wunderground v.1.15,2013-05-05 10:30:00,
2013-05-05 06:35:00,40.2,38.6,30.28,ESE,123,0.0,0.0,94,0.00,,,0.00,Wunderground v.1.15,2013-05-05 10:35:00,
2013-05-05 06:40:00,40.3,38.7,30.28,ESE,123,0.0,0.0,94,0.00,,,0.00,Wunderground v.1.15,2013-05-05 10:40:00,
2013-05-05 06:45:00,40.5,38.9,30.28,ESE,123,0.0,0.0,94,0.00,,,0.00,Wunderground v.1.15,2013-05-05 10:45:00,
2013-05-05 06:50:00,40.7,39.4,30.29,ESE,123,0.0,0.0,95,0.00,,,0.00,Wunderground v.1.15,2013-05-05 10:50:00,
2013-05-05 06:55:00,40.9,39.6,30.29,ESE,123,0.0,0.0,95,0.00,,,0.00,Wunderground v.1.15,2013-05-05 10:55:00,
2013-05-05 07:00:00,41.1,39.8,30.29,ESE,123,0.0,0.0,95,0.00,,,0.00,Wunderground v.1.15,2013-05-05 11:00:00,
2013-05-05 07:10:00,42.3,41.0,30.29,ESE,123,0.0,0.0,95,0.00,,,0.00,Wunderground v.1.15,2013-05-05 11:10:00,
2013-05-05 07:15:00,42.8,41.5,30.29,ESE,123,0.0,0.0,95,0.00,,,0.00,Wunderground v.1.15,2013-05-05 11:15:00,
2013-05-05 07:20:00,43.3,42.2,30.29,ESE,123,0.0,0.0,96,0.00,,,0.00,Wunderground v.1.15,2013-05-05 11:20:00,
2013-05-05 07:25:00,43.6,42.3,30.29,ESE,123,0.0,0.0,95,0.00,,,0.00,Wunderground v.1.15,2013-05-05 11:25:00,
2013-05-05 07:30:00,43.9,42.6,30.29,ESE,123,0.0,0.0,95,0.00,,,0.00,Wunderground v.1.15,2013-05-05 11:30:00,
2013-05-05 07:35:00,44.3,43.0,30.29,ESE,123,0.0,0.0,95,0.00,,,0.00,Wunderground v.1.15,2013-05-05 11:35:00,
2013-05-05 07:45:00,45.0,43.7,30.29,ESE,123,0.0,0.0,95,0.00,,,0.00,Wunderground v.1.15,2013-05-05 11:45:00,
2013-05-05 07:50:00,45.3,43.7,30.30,ESE,123,0.0,0.0,94,0.00,,,0.00,Wunderground v.1.15,2013-05-05 11:50:00,
2013-05-05 07:55:00,45.8,43.9,30.29,ESE,123,0.0,0.0,93,0.00,,,0.00,Wunderground v.1.15,2013-05-05 11:55:00,
2013-05-05 08:00:00,46.4,43.9,30.29,ESE,123,0.0,1.0,91,0.00,,,0.00,Wunderground v.1.15,2013-05-05 12:00:00,
2013-05-05 08:05:00,46.7,43.3,30.30,ESE,123,0.0,1.0,88,0.00,,,0.00,Wunderground v.1.15,2013-05-05 12:05:00,
2013-05-05 08:10:00,47.2,43.5,30.30,SSE,167,0.0,0.0,87,0.00,,,0.00,Wunderground v.1.15,2013-05-05 12:10:00,
2013-05-05 08:15:00,47.6,43.3,30.30,South,169,1.0,2.0,85,0.00,,,0.00,Wunderground v.1.15,2013-05-05 12:15:00,
2013-05-05 08:25:00,48.4,43.2,30.30,SE,143,0.0,1.0,82,0.00,,,0.00,Wunderground v.1.15,2013-05-05 12:25:00,
2013-05-05 08:30:00,48.9,43.3,30.30,SSE,149,0.0,1.0,81,0.00,,,0.00,Wunderground v.1.15,2013-05-05 12:30:00,
2013-05-05 08:35:00,49.2,43.3,30.30,WSW,242,0.0,1.0,80,0.00,,,0.00,Wunderground v.1.15,2013-05-05 12:35:00,
2013-05-05 08:40:00,49.7,43.1,30.30,SSE,148,0.0,0.0,78,0.00,,,0.00,Wunderground v.1.15,2013-05-05 12:40:00,
2013-05-05 08:45:00,50.2,43.6,30.30,SE,124,0.0,2.0,78,0.00,,,0.00,Wunderground v.1.15,2013-05-05 12:45:00,
2013-05-05 08:50:00,50.6,42.3,30.30,SSE,163,1.0,1.0,73,0.00,,,0.00,Wunderground v.1.15,2013-05-05 12:50:00,
2013-05-05 09:05:00,51.7,41.5,30.30,NNE,15,0.0,0.0,68,0.00,,,0.00,Wunderground v.1.15,2013-05-05 13:05:00,
2013-05-05 09:10:00,52.0,41.8,30.30,SSE,158,0.0,0.0,68,0.00,,,0.00,Wunderground v.1.15,2013-05-05 13:10:00,
2013-05-05 09:15:00,52.3,41.7,30.30,SSE,158,0.0,1.0,67,0.00,,,0.00,Wunderground v.1.15,2013-05-05 13:15:00,
2013-05-05 09:20:00,52.4,41.8,30.30,SSE,157,1.0,1.0,67,0.00,,,0.00,Wunderground v.1.15,2013-05-05 13:20:00,
2013-05-05 09:30:00,53.2,41.7,30.29,ESE,117,0.0,0.0,65,0.00,,,0.00,Wunderground v.1.15,2013-05-05 13:30:00,
2013-05-05 09:35:00,53.8,41.5,30.29,SE,138,0.0,0.0,63,0.00,,,0.00,Wunderground v.1.15,2013-05-05 13:35:00,
2013-05-05 09:40:00,54.2,41.5,30.29,SSW,192,0.0,0.0,62,0.00,,,0.00,Wunderground v.1.15,2013-05-05 13:40:00,
2013-05-05 09:45:00,55.0,42.2,30.29,SW,225,0.0,0.0,62,0.00,,,0.00,Wunderground v.1.15,2013-05-05 13:45:00,
2013-05-05 09:50:00,55.8,42.1,30.28,SW,225,0.0,0.0,60,0.00,,,0.00,Wunderground v.1.15,2013-05-05 13:50:00,
2013-05-05 09:55:00,56.6,44.1,30.28,North,11,0.0,1.0,63,0.00,,,0.00,Wunderground v.1.15,2013-05-05 13:55:00,
2013-05-05 10:05:00,58.4,44.1,30.28,NNE,29,0.0,4.0,59,0.00,,,0.00,Wunderground v.1.15,2013-05-05 14:05:00,
2013-05-05 10:10:00,58.9,40.8,30.28,SE,146,0.0,4.0,51,0.00,,,0.00,Wunderground v.1.15,2013-05-05 14:10:00,
2013-05-05 10:15:00,59.1,40.5,30.28,ESE,109,1.0,4.0,50,0.00,,,0.00,Wunderground v.1.15,2013-05-05 14:15:00,
2013-05-05 10:20:00,59.1,40.5,30.28,SE,133,0.0,4.0,50,0.00,,,0.00,Wunderground v.1.15,2013-05-05 14:20:00,
2013-05-05 10:25:00,58.7,39.6,30.28,South,169,0.0,4.0,49,0.00,,,0.00,Wunderground v.1.15,2013-05-05 14:25:00,
2013-05-05 10:30:00,58.8,44.0,30.28,SSE,157,1.0,1.0,58,0.00,,,0.00,Wunderground v.1.15,2013-05-05 14:30:00,
2013-05-05 10:35:00,59.7,41.5,30.28,SE,128,1.0,4.0,51,0.00,,,0.00,Wunderground v.1.15,2013-05-05 14:35:00,
2013-05-05 10:45:00,60.7,39.8,30.28,SE,135,1.0,4.0,46,0.00,,,0.00,Wunderground v.1.15,2013-05-05 14:45:00,
2013-05-05 10:50:00,61.2,39.1,30.28,NE,56,1.0,1.0,44,0.00,,,0.00,Wunderground v.1.15,2013-05-05 14:50:00,
2013-05-05 10:55:00,62.4,42.4,30.27,SSE,157,1.0,2.0,48,0.00,,,0.00,Wunderground v.1.15,2013-05-05 14:55:00,
2013-05-05 11:00:00,62.8,40.5,30.27,SE,145,1.0,7.0,44,0.00,,,0.00,Wunderground v.1.15,2013-05-05 15:00:00,
2013-05-05 11:05:00,62.1,41.1,30.27,South,178,2.0,7.0,46,0.00,,,0.00,Wunderground v.1.15,2013-05-05 15:05:00,
2013-05-05 11:10:00,62.1,39.9,30.27,SE,144,2.0,2.0,44,0.00,,,0.00,Wunderground v.1.15,2013-05-05 15:10:00,
2013-05-05 11:20:00,62.4,36.4,30.27,South,171,1.0,4.0,38,0.00,,,0.00,Wunderground v.1.15,2013-05-05 15:20:00,
2013-05-05 11:25:00,62.1,42.7,30.27,SE,144,1.0,4.0,49,0.00,,,0.00,Wunderground v.1.15,2013-05-05 15:25:00,
2013-05-05 11:30:00,62.4,39.6,30.26,SSE,163,1.0,1.0,43,0.00,,,0.00,Wunderground v.1.15,2013-05-05 15:30:00,
2013-05-05 11:35:00,62.7,38.6,30.26,SSE,167,1.0,4.0,41,0.00,,,0.00,Wunderground v.1.15,2013-05-05 15:35:00,
2013-05-05 11:40:00,62.5,37.8,30.26,SE,132,1.0,1.0,40,0.00,,,0.00,Wunderground v.1.15,2013-05-05 15:40:00,
2013-05-05 11:45:00,63.0,37.6,30.25,South,173,1.0,4.0,39,0.00,,,0.00,Wunderground v.1.15,2013-05-05 15:45:00,
2013-05-05 11:50:00,63.4,38.6,30.25,South,180,1.0,4.0,40,0.00,,,0.00,Wunderground v.1.15,2013-05-05 15:50:00,
2013-05-05 12:00:00,64.9,36.6,30.25,NE,52,1.0,4.0,35,0.00,,,0.00,Wunderground v.1.15,2013-05-05 16:00:00,
2013-05-05 12:05:00,65.8,38.8,30.25,ESE,109,1.0,4.0,37,0.00,,,0.00,Wunderground v.1.15,2013-05-05 16:05:00,
2013-05-05 12:10:00,66.1,36.1,30.25,ENE,59,1.0,1.0,33,0.00,,,0.00,Wunderground v.1.15,2013-05-05 16:10:00,
2013-05-05 12:15:00,65.2,40.3,30.25,South,175,1.0,4.0,40,0.00,,,0.00,Wunderground v.1.15,2013-05-05 16:15:00,
2013-05-05 12:20:00,65.7,35.8,30.25,ESE,107,1.0,1.0,33,0.00,,,0.00,Wunderground v.1.15,2013-05-05 16:20:00,
2013-05-05 12:25:00,66.5,36.5,30.25,NE,49,1.0,4.0,33,0.00,,,0.00,Wunderground v.1.15,2013-05-05 16:25:00,
2013-05-05 12:30:00,67.1,38.5,30.25,East,96,1.0,4.0,35,0.00,,,0.00,Wunderground v.1.15,2013-05-05 16:30:00,
2013-05-05 12:35:00,66.9,41.8,30.24,SE,127,1.0,4.0,40,0.00,,,0.00,Wunderground v.1.15,2013-05-05 16:35:00,
2013-05-05 12:45:00,68.0,37.0,30.24,East,99,1.0,4.0,32,0.00,,,0.00,Wunderground v.1.15,2013-05-05 16:45:00,
2013-05-05 12:50:00,68.5,39.0,30.24,SSE,148,1.0,1.0,34,0.00,,,0.00,Wunderground v.1.15,2013-05-05 16:50:00,
2013-05-05 12:55:00,69.2,37.3,30.24,East,87,0.0,4.0,31,0.00,,,0.00,Wunderground v.1.15,2013-05-05 16:55:00,
2013-05-05 13:00:00,69.7,36.0,30.24,ENE,66,1.0,4.0,29,0.00,,,0.00,Wunderground v.1.15,2013-05-05 17:00:00,
2013-05-05 13:05:00,69.8,36.9,30.23,WNW,300,2.0,4.0,30,0.00,,,0.00,Wunderground v.1.15,2013-05-05 17:05:00,
2013-05-05 13:10:00,69.4,39.8,30.23,SE,140,1.0,6.0,34,0.00,,,0.00,Wunderground v.1.15,2013-05-05 17:10:00,
2013-05-05 13:30:00,68.3,35.6,30.23,South,171,2.0,2.0,30,0.00,,,0.00,Wunderground v.1.15,2013-05-05 17:30:00,
2013-05-05 13:35:00,67.6,38.2,30.23,South,172,4.0,5.0,34,0.00,,,0.00,Wunderground v.1.15,2013-05-05 17:35:00,
2013-05-05 13:40:00,67.5,38.1,30.23,SSE,159,3.0,3.0,34,0.00,,,0.00,Wunderground v.1.15,2013-05-05 17:40:00,
2013-05-05 13:45:00,68.1,35.5,30.23,SSE,149,2.0,4.0,30,0.00,,,0.00,Wunderground v.1.15,2013-05-05 17:45:00,
2013-05-05 13:50:00,68.5,36.7,30.22,South,171,1.0,1.0,31,0.00,,,0.00,Wunderground v.1.15,2013-05-05 17:50:00,
2013-05-05 14:00:00,68.9,38.6,30.22,SSE,168,1.0,4.0,33,0.00,,,0.00,Wunderground v.1.15,2013-05-05 18:00:00,
2013-05-05 14:05:00,70.0,37.1,30.22,NE,41,1.0,4.0,30,0.00,,,0.00,Wunderground v.1.15,2013-05-05 18:05:00,
2013-05-05 14:10:00,70.8,36.1,30.21,East,81,1.0,1.0,28,0.00,,,0.00,Wunderground v.1.15,2013-05-05 18:10:00,
2013-05-05 14:15:00,71.5,39.3,30.22,SSE,160,1.0,4.0,31,0.00,,,0.00,Wunderground v.1.15,2013-05-05 18:15:00,
2013-05-05 14:20:00,70.9,37.9,30.21,South,178,2.0,2.0,30,0.00,,,0.00,Wunderground v.1.15,2013-05-05 18:20:00,
2013-05-05 14:25:00,70.7,39.4,30.21,SSE,163,2.0,4.0,32,0.00,,,0.00,Wunderground v.1.15,2013-05-05 18:25:00,
2013-05-05 14:30:00,71.1,42.0,30.21,SE,130,1.0,1.0,35,0.00,,,0.00,Wunderground v.1.15,2013-05-05 18:30:00,
2013-05-05 14:40:00,70.6,36.8,30.20,SE,134,2.0,2.0,29,0.00,,,0.00,Wunderground v.1.15,2013-05-05 18:40:00,
2013-05-05 14:45:00,71.4,36.6,30.20,ENE,77,0.0,4.0,28,0.00,,,0.00,Wunderground v.1.15,2013-05-05 18:45:00,
2013-05-05 14:50:00,71.3,37.4,30.20,SE,139,2.0,4.0,29,0.00,,,0.00,Wunderground v.1.15,2013-05-05 18:50:00,
2013-05-05 14:55:00,71.5,36.7,30.20,SSE,163,2.0,4.0,28,0.00,,,0.00,Wunderground v.1.15,2013-05-05 18:55:00,
2013-05-05 15:00:00,71.3,38.2,30.19,South,171,2.0,4.0,30,0.00,,,0.00,Wunderground v.1.15,2013-05-05 19:00:00,
2013-05-05 15:10:00,71.3,39.9,30.19,ESE,121,2.0,4.0,32,0.00,,,0.00,Wunderground v.1.15,2013-05-05 19:10:00,
2013-05-05 15:15:00,72.1,41.4,30.19,ENE,61,2.0,4.0,33,0.00,,,0.00,Wunderground v.1.15,2013-05-05 19:15:00,
2013-05-05 15:20:00,72.9,36.0,30.19,ESE,111,1.0,1.0,26,0.00,,,0.00,Wunderground v.1.15,2013-05-05 19:20:00,
2013-05-05 15:25:00,72.9,32.9,30.18,SSE,167,2.0,2.0,23,0.00,,,0.00,Wunderground v.1.15,2013-05-05 19:25:00,
2013-05-05 15:30:00,72.8,34.9,30.18,ESE,107,2.0,2.0,25,0.00,,,0.00,Wunderground v.1.15,2013-05-05 19:30:00,
2013-05-05 15:35:00,73.5,44.9,30.18,South,182,1.0,5.0,36,0.00,,,0.00,Wunderground v.1.15,2013-05-05 19:35:00,
2013-05-05 15:40:00,73.3,40.0,30.18,SSE,159,1.0,1.0,30,0.00,,,0.00,Wunderground v.1.15,2013-05-05 19:40:00,
2013-05-05 15:50:00,72.2,38.2,30.18,SSE,156,2.0,2.0,29,0.00,,,0.00,Wunderground v.1.15,2013-05-05 19:50:00,
2013-05-05 15:55:00,72.3,35.5,30.18,South,174,2.0,6.0,26,0.00,,,0.00,Wunderground v.1.15,2013-05-05 19:55:00,
2013-05-05 16:00:00,72.0,35.2,30.18,South,176,2.0,7.0,26,0.00,,,0.00,Wunderground v.1.15,2013-05-05 20:00:00,
2013-05-05 16:05:00,71.5,35.7,30.17,SSW,198,3.0,7.0,27,0.00,,,0.00,Wunderground v.1.15,2013-05-05 20:05:00,
2013-05-05 16:10:00,72.2,36.3,30.17,SSE,162,1.0,4.0,27,0.00,,,0.00,Wunderground v.1.15,2013-05-05 20:10:00,
2013-05-05 16:15:00,72.9,36.0,30.17,SSE,155,1.0,4.0,26,0.00,,,0.00,Wunderground v.1.15,2013-05-05 20:15:00,
2013-05-05 16:20:00,72.6,33.7,30.17,ESE,105,2.0,4.0,24,0.00,,,0.00,Wunderground v.1.15,2013-05-05 20:20:00,
2013-05-05 16:30:00,72.4,35.6,30.17,South,174,1.0,4.0,26,0.00,,,0.00,Wunderground v.1.15,2013-05-05 20:30:00,
2013-05-05 16:35:00,72.1,33.3,30.17,SE,142,2.0,4.0,24,0.00,,,0.00,Wunderground v.1.15,2013-05-05 20:35:00,
2013-05-05 16:40:00,72.3,40.0,30.17,South,171,1.0,4.0,31,0.00,,,0.00,Wunderground v.1.15,2013-05-05 20:40:00,
2013-05-05 16:45:00,72.4,36.5,30.17,SSE,161,1.0,4.0,27,0.00,,,0.00,Wunderground v.1.15,2013-05-05 20:45:00,
2013-05-05 16:50:00,72.4,33.5,30.16,South,176,0.0,4.0,24,0.00,,,0.00,Wunderground v.1.15,2013-05-05 20:50:00,
2013-05-05 16:55:00,72.5,36.6,30.16,ESE,105,1.0,4.0,27,0.00,,,0.00,Wunderground v.1.15,2013-05-05 20:55:00,
2013-05-05 17:05:00,71.8,35.0,30.16,SE,126,2.0,6.0,26,0.00,,,0.00,Wunderground v.1.15,2013-05-05 21:05:00,
2013-05-05 17:10:00,71.9,34.1,30.16,SSE,163,1.0,1.0,25,0.00,,,0.00,Wunderground v.1.15,2013-05-05 21:10:00,
2013-05-05 17:15:00,72.0,38.0,30.16,SSE,161,1.0,4.0,29,0.00,,,0.00,Wunderground v.1.15,2013-05-05 21:15:00,
2013-05-05 17:20:00,71.6,32.9,30.16,South,180,1.0,4.0,24,0.00,,,0.00,Wunderground v.1.15,2013-05-05 21:20:00,
2013-05-05 17:25:00,71.0,34.4,30.16,South,173,3.0,4.0,26,0.00,,,0.00,Wunderground v.1.15,2013-05-05 21:25:00,
2013-05-05 17:30:00,70.9,33.3,30.16,SE,138,3.0,3.0,25,0.00,,,0.00,Wunderground v.1.15,2013-05-05 21:30:00,
2013-05-05 17:35:00,71.1,34.5,30.16,SE,138,1.0,4.0,26,0.00,,,0.00,Wunderground v.1.15,2013-05-05 21:35:00,
2013-05-05 17:45:00,71.0,32.4,30.15,SSE,165,2.0,2.0,24,0.00,,,0.00,Wunderground v.1.15,2013-05-05 21:45:00,
2013-05-05 17:50:00,70.8,34.2,30.16,SSE,164,2.0,2.0,26,0.00,,,0.00,Wunderground v.1.15,2013-05-05 21:50:00,
2013-05-05 17:55:00,70.6,36.8,30.16,South,174,2.0,4.0,29,0.00,,,0.00,Wunderground v.1.15,2013-05-05 21:55:00,
2013-05-05 18:00:00,70.6,35.0,30.16,SSE,159,1.0,1.0,27,0.00,,,0.00,Wunderground v.1.15,2013-05-05 22:00:00,
2013-05-05 18:05:00,70.3,31.8,30.15,SSE,159,1.0,4.0,24,0.00,,,0.00,Wunderground v.1.15,2013-05-05 22:05:00,
2013-05-05 18:10:00,70.3,33.8,30.16,ESE,109,2.0,2.0,26,0.00,,,0.00,Wunderground v.1.15,2013-05-05 22:10:00,
2013-05-05 18:15:00,70.3,32.8,30.16,South,169,1.0,4.0,25,0.00,,,0.00,Wunderground v.1.15,2013-05-05 22:15:00,
2013-05-05 18:25:00,70.6,34.0,30.16,South,170,1.0,4.0,26,0.00,,,0.00,Wunderground v.1.15,2013-05-05 22:25:00,
2013-05-05 18:30:00,70.6,36.8,30.15,ESE,117,1.0,1.0,29,0.00,,,0.00,Wunderground v.1.15,2013-05-05 22:30:00,
2013-05-05 18:35:00,70.5,36.7,30.15,SSE,150,0.0,4.0,29,0.00,,,0.00,Wunderground v.1.15,2013-05-05 22:35:00,
2013-05-05 18:40:00,70.2,37.3,30.15,SSW,203,1.0,1.0,30,0.00,,,0.00,Wunderground v.1.15,2013-05-05 22:40:00,
2013-05-05 18:45:00,70.0,35.4,30.16,South,189,1.0,4.0,28,0.00,,,0.00,Wunderground v.1.15,2013-05-05 22:45:00,
2013-05-05 18:50:00,69.7,36.9,30.16,South,177,0.0,4.0,30,0.00,,,0.00,Wunderground v.1.15,2013-05-05 22:50:00,
2013-05-05 19:00:00,69.0,34.5,30.16,SSW,197,1.0,1.0,28,0.00,,,0.00,Wunderground v.1.15,2013-05-05 23:00:00,
2013-05-05 19:05:00,68.9,34.4,30.16,SSE,167,1.0,4.0,28,0.00,,,0.00,Wunderground v.1.15,2013-05-05 23:05:00,
2013-05-05 19:10:00,68.9,37.8,30.16,SSE,164,0.0,4.0,32,0.00,,,0.00,Wunderground v.1.15,2013-05-05 23:10:00,
2013-05-05 19:15:00,68.9,34.4,30.16,SSE,164,0.0,4.0,28,0.00,,,0.00,Wunderground v.1.15,2013-05-05 23:15:00,
2013-05-05 19:20:00,68.7,34.3,30.16,SSE,164,0.0,4.0,28,0.00,,,0.00,Wunderground v.1.15,2013-05-05 23:20:00,
2013-05-05 19:25:00,68.6,35.9,30.16,SSE,164,0.0,4.0,30,0.00,,,0.00,Wunderground v.1.15,2013-05-05 23:25:00,
2013-05-05 19:30:00,68.4,35.7,30.16,SSE,164,0.0,4.0,30,0.00,,,0.00,Wunderground v.1.15,2013-05-05 23:30:00,
2013-05-05 19:35:00,67.9,35.3,30.16,SSE,164,0.0,4.0,30,0.00,,,0.00,Wunderground v.1.15,2013-05-05 23:35:00,
2013-05-05 19:45:00,66.8,38.3,30.16,SSE,164,0.0,4.0,35,0.00,,,0.00,Wunderground v.1.15,2013-05-05 23:45:00,
2013-05-05 19:50:00,66.0,42.2,30.16,SSE,164,0.0,4.0,42,0.00,,,0.00,Wunderground v.1.15,2013-05-05 23:50:00,
2013-05-05 19:55:00,65.2,43.3,30.17,SSE,164,0.0,4.0,45,0.00,,,0.00,Wunderground v.1.15,2013-05-05 23:55:00,
2013-05-05 20:00:00,64.2,42.4,30.17,SSE,164,0.0,4.0,45,0.00,,,0.00,Wunderground v.1.15,2013-05-06 00:00:00,
2013-05-05 20:05:00,63.2,42.1,30.17,SSE,164,0.0,4.0,46,0.00,,,0.00,Wunderground v.1.15,2013-05-06 00:05:00,
2013-05-05 20:10:00,62.3,41.2,30.17,SSE,164,0.0,4.0,46,0.00,,,0.00,Wunderground v.1.15,2013-05-06 00:10:00,
2013-05-05 20:15:00,61.4,38.7,30.17,SSE,164,0.0,4.0,43,0.00,,,0.00,Wunderground v.1.15,2013-05-06 00:15:00,
2013-05-05 20:25:00,60.0,36.8,30.17,SE,136,0.0,4.0,42,0.00,,,0.00,Wunderground v.1.15,2013-05-06 00:25:00,
2013-05-05 20:30:00,59.7,36.6,30.18,SE,136,0.0,4.0,42,0.00,,,0.00,Wunderground v.1.15,2013-05-06 00:30:00,
2013-05-05 20:35:00,59.6,36.5,30.18,SSE,150,0.0,4.0,42,0.00,,,0.00,Wunderground v.1.15,2013-05-06 00:35:00,
2013-05-05 20:40:00,59.5,37.0,30.18,SE,134,0.0,4.0,43,0.00,,,0.00,Wunderground v.1.15,2013-05-06 00:40:00,
2013-05-05 20:45:00,59.5,38.1,30.18,SSE,148,1.0,4.0,45,0.00,,,0.00,Wunderground v.1.15,2013-05-06 00:45:00,
2013-05-05 20:50:00,59.4,38.0,30.18,ESE,116,1.0,1.0,45,0.00,,,0.00,Wunderground v.1.15,2013-05-06 00:50:00,
2013-05-05 21:00:00,59.1,39.4,30.18,SE,142,0.0,4.0,48,0.00,,,0.00,Wunderground v.1.15,2013-05-06 01:00:00,
2013-05-05 21:05:00,58.8,40.2,30.19,SE,132,0.0,4.0,50,0.00,,,0.00,Wunderground v.1.15,2013-05-06 01:05:00,
2013-05-05 21:10:00,58.5,40.4,30.19,SE,144,0.0,4.0,51,0.00,,,0.00,Wunderground v.1.15,2013-05-06 01:10:00,
2013-05-05 21:15:00,58.2,41.6,30.19,SSE,167,1.0,4.0,54,0.00,,,0.00,Wunderground v.1.15,2013-05-06 01:15:00,
2013-05-05 21:20:00,58.0,41.9,30.19,SE,136,1.0,1.0,55,0.00,,,0.00,Wunderground v.1.15,2013-05-06 01:20:00,
2013-05-05 21:25:00,57.9,42.8,30.19,South,178,1.0,4.0,57,0.00,,,0.00,Wunderground v.1.15,2013-05-06 01:25:00,
2013-05-05 21:30:00,57.8,43.1,30.20,South,173,2.0,4.0,58,0.00,,,0.00,Wunderground v.1.15,2013-05-06 01:30:00,
2013-05-05 21:40:00,57.7,43.0,30.20,South,173,2.0,7.0,58,0.00,,,0.00,Wunderground v.1.15,2013-05-06 01:40:00,
2013-05-05 21:45:00,57.6,42.9,30.20,SSE,155,2.0,7.0,58,0.00,,,0.00,Wunderground v.1.15,2013-05-06 01:45:00,
2013-05-05 21:50:00,57.5,43.3,30.20,South,173,2.0,2.0,59,0.00,,,0.00,Wunderground v.1.15,2013-05-06 01:50:00,
2013-05-05 21:55:00,57.4,43.2,30.20,SE,142,2.0,4.0,59,0.00,,,0.00,Wunderground v.1.15,2013-05-06 01:55:00,
2013-05-05 22:00:00,57.2,43.0,30.20,SSE,165,1.0,4.0,59,0.00,,,0.00,Wunderground v.1.15,2013-05-06 02:00:00,
2013-05-05 22:05:00,56.9,43.2,30.20,SSE,154,1.0,4.0,60,0.00,,,0.00,Wunderground v.1.15,2013-05-06 02:05:00,
2013-05-05 22:10:00,56.7,43.4,30.21,South,173,2.0,5.0,61,0.00,,,0.00,Wunderground v.1.15,2013-05-06 02:10:00,
2013-05-05 22:20:00,56.4,43.1,30.20,ESE,120,2.0,2.0,61,0.00,,,0.00,Wunderground v.1.15,2013-05-06 02:20:00,
2013-05-05 22:25:00,56.2,43.3,30.21,SE,139,1.0,8.0,62,0.00,,,0.00,Wunderground v.1.15,2013-05-06 02:25:00,
2013-05-05 22:30:00,55.9,43.1,30.21,South,177,2.0,2.0,62,0.00,,,0.00,Wunderground v.1.15,2013-05-06 02:30:00,
2013-05-05 22:35:00,55.7,42.9,30.21,South,178,2.0,4.0,62,0.00,,,0.00,Wunderground v.1.15,2013-05-06 02:35:00,
2013-05-05 22:40:00,55.4,42.6,30.21,SSW,204,1.0,5.0,62,0.00,,,0.00,Wunderground v.1.15,2013-05-06 02:40:00,
2013-05-05 22:45:00,55.2,42.4,30.21,SSW,213,1.0,6.0,62,0.00,,,0.00,Wunderground v.1.15,2013-05-06 02:45:00,
2013-05-05 22:55:00,54.9,42.5,30.21,SE,139,1.0,4.0,63,0.00,,,0.00,Wunderground v.1.15,2013-05-06 02:55:00,
2013-05-05 23:00:00,54.7,42.8,30.20,South,176,1.0,4.0,64,0.00,,,0.00,Wunderground v.1.15,2013-05-06 03:00:00,
2013-05-05 23:05:00,54.3,42.4,30.21,South,179,0.0,4.0,64,0.00,,,0.00,Wunderground v.1.15,2013-05-06 03:05:00,
2013-05-05 23:10:00,54.0,42.5,30.21,SE,142,0.0,4.0,65,0.00,,,0.00,Wunderground v.1.15,2013-05-06 03:10:00,
2013-05-05 23:15:00,53.7,42.2,30.21,South,171,0.0,4.0,65,0.00,,,0.00,Wunderground v.1.15,2013-05-06 03:15:00,
2013-05-05 23:20:00,53.3,42.2,30.21,East,98,0.0,4.0,66,0.00,,,0.00,Wunderground v.1.15,2013-05-06 03:20:00,
2013-05-05 23:25:00,53.0,41.9,30.22,SSE,156,0.0,4.0,66,0.00,,,0.00,Wunderground v.1.15,2013-05-06 03:25:00,
2013-05-05 23:35:00,52.4,42.1,30.21,SSE,156,0.0,4.0,68,0.00,,,0.00,Wunderground v.1.15,2013-05-06 03:35:00,
2013-05-05 23:40:00,52.1,41.9,30.21,SSE,156,0.0,4.0,68,0.00,,,0.00,Wunderground v.1.15,2013-05-06 03:40:00,
2013-05-05 23:45:00,51.9,42.0,30.21,SE,127,0.0,4.0,69,0.00,,,0.00,Wunderground v.1.15,2013-05-06 03:45:00,
2013-05-05 23:50:00,51.7,41.9,30.21,ESE,119,0.0,4.0,69,0.00,,,0.00,Wunderground v.1.15,2013-05-06 03:50:00,
2013-05-05 23:55:00,51.5,42.0,30.21,SE,134,0.0,4.0,70,0.00,,,0.00,Wunderground v.1.15,2013-05-06 03:55:00,